Date,TemperatureHighF,TemperatureAvgF,TemperatureLowF,DewpointHighF,DewpointAvgF,DewpointLowF,HumidityHigh,HumidityAvg,HumidityLow,PressureMaxIn,PressureMinIn,WindSpeedMaxMPH,WindSpeedAvgMPH,GustSpeedMaxMPH,PrecipitationSumIn
2013-1-1,20,15,10,15,10,7,87,80,71,30.34,30.20,11,3,12,0.00
2013-1-2,29,18,7,19,12,4,91,76,61,30.31,30.19,8,4,14,0.00
2013-1-3,34,26,16,28,22,11,88,83,75,30.43,30.22,12,4,15,0.02
2013-1-4,36,24,12,24,18,9,88,77,59,30.41,30.32,12,3,20,0.01
2013-1-5,38,32,23,34,28,20,94,85,75,30.32,30.07,12,4,15,0.02
2013-1-6,37,27,22,33,22,18,87,79,66,30.40,30.06,19,6,23,0.00
2013-1-7,41,30,20,30,24,18,91,79,63,30.40,30.15,13,6,21,0.00
2013-1-8,48,37,29,33,29,25,85,74,55,30.19,30.09,9,5,13,0.00
2013-1-9,49,41,32,36,32,27,85,71,55,30.52,30.13,10,4,16,0.00
2013-1-10,49,38,31,48,33,26,98,84,62,30.49,29.82,8,2,14,0.77
2013-1-11,58,52,47,52,48,46,99,88,74,29.84,29.70,15,7,22,0.03
2013-1-12,54,40,24,48,34,22,92,81,64,30.02,29.74,14,7,24,0.01
2013-1-13,24,19,14,21,14,9,90,81,74,30.38,29.97,13,5,16,0.00
2013-1-14,26,17,12,16,12,8,87,80,62,30.55,30.39,7,2,12,0.00
2013-1-15,30,20,12,19,14,9,90,79,61,30.50,30.20,6,0,9,0.01
2013-1-16,40,28,17,28,19,12,85,69,49,30.21,29.99,20,3,21,0.03
2013-1-17,35,30,25,29,22,17,91,74,57,30.50,30.15,13,5,20,0.00
2013-1-18,49,36,23,32,25,18,86,66,48,30.50,30.05,15,6,22,0.00
2013-1-19,55,45,37,38,32,25,74,62,51,30.13,29.87,15,7,25,0.00
2013-1-20,34,20,16,27,11,7,86,70,57,30.40,30.14,24,7,31,0.00
2013-1-21,15,11,7,10,0,-5,82,63,45,30.45,30.34,17,8,26,0.00
2013-1-22,16,9,3,3,-1,-4,75,63,45,30.55,30.44,11,4,14,0.00
2013-1-23,36,23,13,19,11,2,77,61,45,30.45,30.18,16,6,23,0.00
2013-1-24,24,17,8,11,4,-2,73,58,43,30.68,30.34,16,4,20,0.00
2013-1-25,39,29,23,22,16,9,75,58,44,30.31,30.10,14,5,21,0.00
2013-1-26,33,23,12,15,11,6,80,61,42,30.46,30.29,9,3,17,0.00
2013-1-27,45,33,26,45,29,15,98,86,62,30.37,29.92,15,5,20,0.26
2013-1-28,59,52,45,57,51,45,99,96,90,29.96,29.78,11,4,17,0.00
2013-1-29,63,56,40,60,55,39,99,95,87,29.78,29.43,11,5,22,1.12
2013-1-30,39,30,20,39,28,14,99,89,74,29.89,29.31,25,10,38,0.11
2013-1-31,24,16,6,17,9,-3,83,73,63,30.40,29.89,19,10,27,0.00